Year,Month,Day,Hour,Minute,Value (Times are PST for temperature in C)
2010,08,12,00,00,17.30
2010,08,12,00,01,17.30
2010,08,12,00,02,17.30
2010,08,12,00,03,17.30
2010,08,12,00,04,17.30
2010,08,12,00,05,17.30
2010,08,12,00,06,17.20
2010,08,12,00,07,17.20
2010,08,12,00,08,17.20
2010,08,12,00,09,17.20
2010,08,12,00,10,17.10
2010,08,12,00,11,17.10
2010,08,12,00,12,17.10
2010,08,12,00,13,17.10
2010,08,12,00,14,17.10
2010,08,12,00,15,17.10
2010,08,12,00,16,17.00
2010,08,12,00,17,17.00
2010,08,12,00,18,17.00
2010,08,12,00,19,16.90
2010,08,12,00,20,16.90
2010,08,12,00,21,16.90
2010,08,12,00,22,16.90
2010,08,12,00,23,16.90
2010,08,12,00,24,16.90
2010,08,12,00,25,16.80
2010,08,12,00,26,16.80
2010,08,12,00,27,16.80
2010,08,12,00,28,16.80
2010,08,12,00,29,16.80
2010,08,12,00,30,16.70
2010,08,12,00,31,16.70
2010,08,12,00,32,16.70
2010,08,12,00,33,16.60
2010,08,12,00,34,16.60
2010,08,12,00,35,16.60
2010,08,12,00,36,16.60
2010,08,12,00,37,16.50
2010,08,12,00,38,16.50
2010,08,12,00,39,16.50
2010,08,12,00,40,16.40
2010,08,12,00,41,16.40
2010,08,12,00,42,16.40
2010,08,12,00,43,16.40
2010,08,12,00,44,16.40
2010,08,12,00,45,16.40
2010,08,12,00,46,16.40
2010,08,12,00,47,16.40
2010,08,12,00,48,16.30
2010,08,12,00,49,16.30
2010,08,12,00,50,16.30
2010,08,12,00,51,16.30
2010,08,12,00,52,16.30
2010,08,12,00,53,16.30
2010,08,12,00,54,16.30
2010,08,12,00,55,16.30
2010,08,12,00,56,16.30
2010,08,12,00,57,16.30
2010,08,12,00,58,16.30
2010,08,12,00,59,16.20
2010,08,12,01,00,16.20
2010,08,12,01,01,16.20
2010,08,12,01,02,16.10
2010,08,12,01,03,16.10
2010,08,12,01,04,16.10
2010,08,12,01,05,16.00
2010,08,12,01,06,16.00
2010,08,12,01,07,15.90
2010,08,12,01,08,15.90
2010,08,12,01,09,15.90
2010,08,12,01,10,15.90
2010,08,12,01,11,15.90
2010,08,12,01,12,15.80
2010,08,12,01,13,15.80
2010,08,12,01,14,15.80
2010,08,12,01,15,15.80
2010,08,12,01,16,15.80
2010,08,12,01,17,15.80
2010,08,12,01,18,15.80
2010,08,12,01,19,15.70
2010,08,12,01,20,15.70
2010,08,12,01,21,15.70
2010,08,12,01,22,15.60
2010,08,12,01,23,15.60
2010,08,12,01,24,15.60
2010,08,12,01,25,15.50
2010,08,12,01,26,15.50
2010,08,12,01,27,15.50
2010,08,12,01,28,15.40
2010,08,12,01,29,15.40
2010,08,12,01,30,15.40
2010,08,12,01,31,15.40
2010,08,12,01,32,15.30
2010,08,12,01,33,15.30
2010,08,12,01,34,15.30
2010,08,12,01,35,15.30
2010,08,12,01,36,15.20
2010,08,12,01,37,15.20
2010,08,12,01,38,15.20
2010,08,12,01,39,15.20
2010,08,12,01,40,15.20
2010,08,12,01,41,15.20
2010,08,12,01,42,15.20
2010,08,12,01,43,15.30
2010,08,12,01,44,15.30
2010,08,12,01,45,15.50
2010,08,12,01,46,15.60
2010,08,12,01,47,15.70
2010,08,12,01,48,15.90
2010,08,12,01,49,16.00
2010,08,12,01,50,16.20
2010,08,12,01,51,16.30
2010,08,12,01,52,16.50
2010,08,12,01,53,16.60
2010,08,12,01,54,16.70
2010,08,12,01,55,16.80
2010,08,12,01,56,16.90
2010,08,12,01,57,16.90
2010,08,12,01,58,16.90
2010,08,12,01,59,16.90
2010,08,12,02,00,17.00
2010,08,12,02,01,17.00
2010,08,12,02,02,17.00
2010,08,12,02,03,17.00
2010,08,12,02,04,17.00
2010,08,12,02,05,17.00
2010,08,12,02,06,16.90
2010,08,12,02,07,16.90
2010,08,12,02,08,16.90
2010,08,12,02,09,16.80
2010,08,12,02,10,16.80
2010,08,12,02,11,16.80
2010,08,12,02,12,16.70
2010,08,12,02,13,16.70
2010,08,12,02,14,16.70
2010,08,12,02,15,16.60
2010,08,12,02,16,16.60
2010,08,12,02,17,16.50
2010,08,12,02,18,16.40
2010,08,12,02,19,16.40
2010,08,12,02,20,16.40
2010,08,12,02,21,16.30
2010,08,12,02,22,16.30
2010,08,12,02,23,16.30
2010,08,12,02,24,16.30
2010,08,12,02,25,16.20
2010,08,12,02,26,16.20
2010,08,12,02,27,16.20
2010,08,12,02,28,16.20
2010,08,12,02,29,16.20
2010,08,12,02,30,16.20
2010,08,12,02,31,16.20
2010,08,12,02,32,16.20
2010,08,12,02,33,16.20
2010,08,12,02,34,16.10
2010,08,12,02,35,16.10
2010,08,12,02,36,16.10
2010,08,12,02,37,16.10
2010,08,12,02,38,16.10
2010,08,12,02,39,16.10
2010,08,12,02,40,16.00
2010,08,12,02,41,16.00
2010,08,12,02,42,15.90
2010,08,12,02,43,15.90
2010,08,12,02,44,15.90
2010,08,12,02,45,15.90
2010,08,12,02,46,15.90
2010,08,12,02,47,15.80
2010,08,12,02,48,15.80
2010,08,12,02,49,15.80
2010,08,12,02,50,15.80
2010,08,12,02,51,15.70
2010,08,12,02,52,15.70
2010,08,12,02,53,15.60
2010,08,12,02,54,15.60
2010,08,12,02,55,15.60
2010,08,12,02,56,15.60
2010,08,12,02,57,15.60
2010,08,12,02,58,15.50
2010,08,12,02,59,15.50
2010,08,12,03,00,15.50
2010,08,12,03,01,15.50
2010,08,12,03,02,15.50
2010,08,12,03,03,15.60
2010,08,12,03,04,15.50
2010,08,12,03,05,15.60
2010,08,12,03,06,15.60
2010,08,12,03,07,15.60
2010,08,12,03,08,15.60
2010,08,12,03,09,15.60
2010,08,12,03,10,15.60
2010,08,12,03,11,15.60
2010,08,12,03,12,15.70
2010,08,12,03,13,15.70
2010,08,12,03,14,15.70
2010,08,12,03,15,15.70
2010,08,12,03,16,15.70
2010,08,12,03,17,15.70
2010,08,12,03,18,15.70
2010,08,12,03,19,15.70
2010,08,12,03,20,15.70
2010,08,12,03,21,15.70
2010,08,12,03,22,15.70
2010,08,12,03,23,15.60
2010,08,12,03,24,15.60
2010,08,12,03,25,15.60
2010,08,12,03,26,15.60
2010,08,12,03,27,15.50
2010,08,12,03,28,15.50
2010,08,12,03,29,15.40
2010,08,12,03,30,15.40
2010,08,12,03,31,15.40
2010,08,12,03,32,15.30
2010,08,12,03,33,15.30
2010,08,12,03,34,15.20
2010,08,12,03,35,15.20
2010,08,12,03,36,15.20
2010,08,12,03,37,15.10
2010,08,12,03,38,15.10
2010,08,12,03,39,15.00
2010,08,12,03,40,15.00
2010,08,12,03,41,14.90
2010,08,12,03,42,14.90
2010,08,12,03,43,14.90
2010,08,12,03,44,14.90
2010,08,12,03,45,14.80
2010,08,12,03,46,14.80
2010,08,12,03,47,14.80
2010,08,12,03,48,14.70
2010,08,12,03,49,14.70
2010,08,12,03,50,14.70
2010,08,12,03,51,14.60
2010,08,12,03,52,14.60
2010,08,12,03,53,14.50
2010,08,12,03,54,14.50
2010,08,12,03,55,14.40
2010,08,12,03,56,14.40
2010,08,12,03,57,14.30
2010,08,12,03,58,14.30
2010,08,12,03,59,14.20
2010,08,12,04,00,14.20
2010,08,12,04,01,14.10
2010,08,12,04,02,14.10
2010,08,12,04,03,14.10
2010,08,12,04,04,14.10
2010,08,12,04,05,14.00
2010,08,12,04,06,14.10
2010,08,12,04,07,14.10
2010,08,12,04,08,14.20
2010,08,12,04,09,14.20
2010,08,12,04,10,14.30
2010,08,12,04,11,14.40
2010,08,12,04,12,14.50
2010,08,12,04,13,14.60
2010,08,12,04,14,14.70
2010,08,12,04,15,14.80
2010,08,12,04,16,14.90
2010,08,12,04,17,15.00
2010,08,12,04,18,15.10
2010,08,12,04,19,15.10
2010,08,12,04,20,15.10
2010,08,12,04,21,15.20
2010,08,12,04,22,15.20
2010,08,12,04,23,15.30
2010,08,12,04,24,15.30
2010,08,12,04,25,15.30
2010,08,12,04,26,15.40
2010,08,12,04,27,15.40
2010,08,12,04,28,15.50
2010,08,12,04,29,15.60
2010,08,12,04,30,15.60
2010,08,12,04,31,15.70
2010,08,12,04,32,15.70
2010,08,12,04,33,15.70
2010,08,12,04,34,15.80
2010,08,12,04,35,15.80
2010,08,12,04,36,15.80
2010,08,12,04,37,15.80
2010,08,12,04,38,15.90
2010,08,12,04,39,15.90
2010,08,12,04,40,15.90
2010,08,12,04,41,16.00
2010,08,12,04,42,16.00
2010,08,12,04,43,16.00
2010,08,12,04,44,16.10
2010,08,12,04,45,16.10
2010,08,12,04,46,16.10
2010,08,12,04,47,16.10
2010,08,12,04,48,16.10
2010,08,12,04,49,16.10
2010,08,12,04,50,16.10
2010,08,12,04,51,16.10
2010,08,12,04,52,16.10
2010,08,12,04,53,16.10
2010,08,12,04,54,16.20
2010,08,12,04,55,16.20
2010,08,12,04,56,16.20
2010,08,12,04,57,16.20
2010,08,12,04,58,16.20
2010,08,12,04,59,16.20
2010,08,12,05,00,16.20
2010,08,12,05,01,16.20
2010,08,12,05,02,16.20
2010,08,12,05,03,16.20
2010,08,12,05,04,16.10
2010,08,12,05,05,16.10
2010,08,12,05,06,16.10
2010,08,12,05,07,16.00
2010,08,12,05,08,16.00
2010,08,12,05,09,15.90
2010,08,12,05,10,15.90
2010,08,12,05,11,15.80
2010,08,12,05,12,15.80
2010,08,12,05,13,15.80
2010,08,12,05,14,15.70
2010,08,12,05,15,15.70
2010,08,12,05,16,15.60
2010,08,12,05,17,15.50
2010,08,12,05,18,15.40
2010,08,12,05,19,15.40
2010,08,12,05,20,15.30
2010,08,12,05,21,15.30
2010,08,12,05,22,15.30
2010,08,12,05,23,15.20
2010,08,12,05,24,15.20
2010,08,12,05,25,15.20
2010,08,12,05,26,15.10
2010,08,12,05,27,15.10
2010,08,12,05,28,15.10
2010,08,12,05,29,15.10
2010,08,12,05,30,15.10
2010,08,12,05,31,15.00
2010,08,12,05,32,15.00
2010,08,12,05,33,15.00
2010,08,12,05,34,15.00
2010,08,12,05,35,14.90
2010,08,12,05,36,14.90
2010,08,12,05,37,14.90
2010,08,12,05,38,14.90
2010,08,12,05,39,14.90
2010,08,12,05,40,15.00
2010,08,12,05,41,15.00
2010,08,12,05,42,15.00
2010,08,12,05,43,15.00
2010,08,12,05,44,15.10
2010,08,12,05,45,15.10
2010,08,12,05,46,15.10
2010,08,12,05,47,15.10
2010,08,12,05,48,15.20
2010,08,12,05,49,15.20
2010,08,12,05,50,15.20
2010,08,12,05,51,15.20
2010,08,12,05,52,15.30
2010,08,12,05,53,15.30
2010,08,12,05,54,15.40
2010,08,12,05,55,15.40
2010,08,12,05,56,15.40
2010,08,12,05,57,15.40
2010,08,12,05,58,15.50
2010,08,12,05,59,15.50
2010,08,12,06,00,15.60
2010,08,12,06,01,15.60
2010,08,12,06,02,15.70
2010,08,12,06,03,15.70
2010,08,12,06,04,15.70
2010,08,12,06,05,15.70
2010,08,12,06,06,15.70
2010,08,12,06,07,15.70
2010,08,12,06,08,15.70
2010,08,12,06,09,15.70
2010,08,12,06,10,15.80
2010,08,12,06,11,15.80
2010,08,12,06,12,15.80
2010,08,12,06,13,15.80
2010,08,12,06,14,15.80
2010,08,12,06,15,15.70
2010,08,12,06,16,15.70
2010,08,12,06,17,15.80
2010,08,12,06,18,15.80
2010,08,12,06,19,15.80
2010,08,12,06,20,15.80
2010,08,12,06,21,15.90
2010,08,12,06,22,15.90
2010,08,12,06,23,15.90
2010,08,12,06,24,15.90
2010,08,12,06,25,15.90
2010,08,12,06,26,15.90
2010,08,12,06,27,15.90
2010,08,12,06,28,15.90
2010,08,12,06,29,15.90
2010,08,12,06,30,15.90
2010,08,12,06,31,15.90
2010,08,12,06,32,16.00
2010,08,12,06,33,16.00
2010,08,12,06,34,16.10
2010,08,12,06,35,16.10
2010,08,12,06,36,16.10
2010,08,12,06,37,16.10
2010,08,12,06,38,16.20
2010,08,12,06,39,16.20
2010,08,12,06,40,16.20
2010,08,12,06,41,16.20
2010,08,12,06,42,16.20
2010,08,12,06,43,16.30
2010,08,12,06,44,16.30
2010,08,12,06,45,16.30
2010,08,12,06,46,16.30
2010,08,12,06,47,16.30
2010,08,12,06,48,16.40
2010,08,12,06,49,16.40
2010,08,12,06,50,16.40
2010,08,12,06,51,16.40
2010,08,12,06,52,16.50
2010,08,12,06,53,16.50
2010,08,12,06,54,16.50
2010,08,12,06,55,16.50
2010,08,12,06,56,16.50
2010,08,12,06,57,16.60
2010,08,12,06,58,16.60
2010,08,12,06,59,16.60
2010,08,12,07,00,16.60
2010,08,12,07,01,16.60
2010,08,12,07,02,16.60
2010,08,12,07,03,16.60
2010,08,12,07,04,16.70
2010,08,12,07,05,16.70
2010,08,12,07,06,16.70
2010,08,12,07,07,16.70
2010,08,12,07,08,16.70
2010,08,12,07,09,16.80
2010,08,12,07,10,16.80
2010,08,12,07,11,16.80
2010,08,12,07,12,16.80
2010,08,12,07,13,16.80
2010,08,12,07,14,16.90
2010,08,12,07,15,16.90
2010,08,12,07,16,16.90
2010,08,12,07,17,16.90
2010,08,12,07,18,17.00
2010,08,12,07,19,17.00
2010,08,12,07,20,17.00
2010,08,12,07,21,17.10
2010,08,12,07,22,17.10
2010,08,12,07,23,17.10
2010,08,12,07,24,17.10
2010,08,12,07,25,17.20
2010,08,12,07,26,17.20
2010,08,12,07,27,17.20
2010,08,12,07,28,17.20
2010,08,12,07,29,17.20
2010,08,12,07,30,17.30
2010,08,12,07,31,17.30
2010,08,12,07,32,17.30
2010,08,12,07,33,17.30
2010,08,12,07,34,17.30
2010,08,12,07,35,17.30
2010,08,12,07,36,17.30
2010,08,12,07,37,17.30
2010,08,12,07,38,17.30
2010,08,12,07,39,17.30
2010,08,12,07,40,17.30
2010,08,12,07,41,17.30
2010,08,12,07,42,17.30
2010,08,12,07,43,17.30
2010,08,12,07,44,17.30
2010,08,12,07,45,17.30
2010,08,12,07,46,17.30
2010,08,12,07,47,17.30
2010,08,12,07,48,17.30
2010,08,12,07,49,17.30
2010,08,12,07,50,17.30
2010,08,12,07,51,17.40
2010,08,12,07,52,17.40
2010,08,12,07,53,17.40
2010,08,12,07,54,17.40
2010,08,12,07,55,17.40
2010,08,12,07,56,17.50
2010,08,12,07,57,17.50
2010,08,12,07,58,17.50
2010,08,12,07,59,17.60
2010,08,12,08,00,17.60
2010,08,12,08,01,17.60
2010,08,12,08,02,17.60
2010,08,12,08,03,17.60
2010,08,12,08,04,17.70
2010,08,12,08,05,17.70
2010,08,12,08,06,17.70
2010,08,12,08,07,17.70
2010,08,12,08,08,17.80
2010,08,12,08,09,17.80
2010,08,12,08,10,17.90
2010,08,12,08,11,17.90
2010,08,12,08,12,18.00
2010,08,12,08,13,18.00
2010,08,12,08,14,18.10
2010,08,12,08,15,18.10
2010,08,12,08,16,18.10
2010,08,12,08,17,18.20
2010,08,12,08,18,18.20
2010,08,12,08,19,18.20
2010,08,12,08,20,18.30
2010,08,12,08,21,18.30
2010,08,12,08,22,18.30
2010,08,12,08,23,18.30
2010,08,12,08,24,18.30
2010,08,12,08,25,18.40
2010,08,12,08,26,18.40
2010,08,12,08,27,18.40
2010,08,12,08,28,18.40
2010,08,12,08,29,18.40
2010,08,12,08,30,18.40
2010,08,12,08,31,18.40
2010,08,12,08,32,18.40
2010,08,12,08,33,18.40
2010,08,12,08,34,18.40
2010,08,12,08,35,18.40
2010,08,12,08,36,18.40
2010,08,12,08,37,18.40
2010,08,12,08,38,18.50
2010,08,12,08,39,18.50
2010,08,12,08,40,18.50
2010,08,12,08,41,18.50
2010,08,12,08,42,18.50
2010,08,12,08,43,18.50
2010,08,12,08,44,18.50
2010,08,12,08,45,18.50
2010,08,12,08,46,18.50
2010,08,12,08,47,18.50
2010,08,12,08,48,18.50
2010,08,12,08,49,18.50
2010,08,12,08,50,18.40
2010,08,12,08,51,18.40
2010,08,12,08,52,18.50
2010,08,12,08,53,18.50
2010,08,12,08,54,18.60
2010,08,12,08,55,18.60
2010,08,12,08,56,18.60
2010,08,12,08,57,18.60
2010,08,12,08,58,18.60
2010,08,12,08,59,18.60
2010,08,12,09,00,18.70
2010,08,12,09,01,18.70
2010,08,12,09,02,18.70
2010,08,12,09,03,18.70
2010,08,12,09,04,18.70
2010,08,12,09,05,18.80
2010,08,12,09,06,18.80
2010,08,12,09,07,18.80
2010,08,12,09,08,18.80
2010,08,12,09,09,18.70
2010,08,12,09,10,18.70
2010,08,12,09,11,18.70
2010,08,12,09,12,18.70
2010,08,12,09,13,18.70
2010,08,12,09,14,18.70
2010,08,12,09,15,18.70
2010,08,12,09,16,18.70
2010,08,12,09,17,18.70
2010,08,12,09,18,18.70
2010,08,12,09,19,18.70
2010,08,12,09,20,18.60
2010,08,12,09,21,18.60
2010,08,12,09,22,18.60
2010,08,12,09,23,18.60
2010,08,12,09,24,18.60
2010,08,12,09,25,18.60
2010,08,12,09,26,18.60
2010,08,12,09,27,18.70
2010,08,12,09,28,18.70
2010,08,12,09,29,18.70
2010,08,12,09,30,18.70
2010,08,12,09,31,18.70
2010,08,12,09,32,18.70
2010,08,12,09,33,18.60
2010,08,12,09,34,18.60
2010,08,12,09,35,18.60
2010,08,12,09,36,18.60
2010,08,12,09,37,18.50
2010,08,12,09,38,18.50
2010,08,12,09,39,18.50
2010,08,12,09,40,18.50
2010,08,12,09,41,18.50
2010,08,12,09,42,18.40
2010,08,12,09,43,18.40
2010,08,12,09,44,18.40
2010,08,12,09,45,18.40
2010,08,12,09,46,18.50
2010,08,12,09,47,18.50
2010,08,12,09,48,18.60
2010,08,12,09,49,18.60
2010,08,12,09,50,18.60
2010,08,12,09,51,18.60
2010,08,12,09,52,18.60
2010,08,12,09,53,18.60
2010,08,12,09,54,18.60
2010,08,12,09,55,18.50
2010,08,12,09,56,18.50
2010,08,12,09,57,18.40
2010,08,12,09,58,18.30
2010,08,12,09,59,18.30
2010,08,12,10,00,18.30
2010,08,12,10,01,18.40
2010,08,12,10,02,18.40
2010,08,12,10,03,18.40
2010,08,12,10,04,18.40
2010,08,12,10,05,18.30
2010,08,12,10,06,18.30
2010,08,12,10,07,18.30
2010,08,12,10,08,18.30
2010,08,12,10,09,18.40
2010,08,12,10,10,18.40
2010,08,12,10,11,18.40
2010,08,12,10,12,18.40
2010,08,12,10,13,18.40
2010,08,12,10,14,18.40
2010,08,12,10,15,18.40
2010,08,12,10,16,18.40
2010,08,12,10,17,18.40
2010,08,12,10,18,18.40
2010,08,12,10,19,18.50
2010,08,12,10,20,18.50
2010,08,12,10,21,18.60
2010,08,12,10,22,18.60
2010,08,12,10,23,18.50
2010,08,12,10,24,18.60
2010,08,12,10,25,18.60
2010,08,12,10,26,18.60
2010,08,12,10,27,18.60
2010,08,12,10,28,18.60
2010,08,12,10,29,18.70
2010,08,12,10,30,18.80
2010,08,12,10,31,18.80
2010,08,12,10,32,18.90
2010,08,12,10,33,19.00
2010,08,12,10,34,19.10
2010,08,12,10,35,19.10
2010,08,12,10,36,19.20
2010,08,12,10,37,19.20
2010,08,12,10,38,19.30
2010,08,12,10,39,19.30
2010,08,12,10,40,19.20
2010,08,12,10,41,19.20
2010,08,12,10,42,19.20
2010,08,12,10,43,19.20
2010,08,12,10,44,19.20
2010,08,12,10,45,19.20
2010,08,12,10,46,19.20
2010,08,12,10,47,19.30
2010,08,12,10,48,19.30
2010,08,12,10,49,19.40
2010,08,12,10,50,19.50
2010,08,12,10,51,19.50
2010,08,12,10,52,19.50
2010,08,12,10,53,19.40
2010,08,12,10,54,19.50
2010,08,12,10,55,19.50
2010,08,12,10,56,19.50
2010,08,12,10,57,19.50
2010,08,12,10,58,19.60
2010,08,12,10,59,19.60
2010,08,12,11,00,19.60
2010,08,12,11,01,19.60
2010,08,12,11,02,19.60
2010,08,12,11,03,19.60
2010,08,12,11,04,19.60
2010,08,12,11,05,19.60
2010,08,12,11,06,19.60
2010,08,12,11,07,19.60
2010,08,12,11,08,19.70
2010,08,12,11,09,19.70
2010,08,12,11,10,19.70
2010,08,12,11,11,19.70
2010,08,12,11,12,19.80
2010,08,12,11,13,19.70
2010,08,12,11,14,19.70
2010,08,12,11,15,19.70
2010,08,12,11,16,19.80
2010,08,12,11,17,19.80
2010,08,12,11,18,19.90
2010,08,12,11,19,19.90
2010,08,12,11,20,20.00
2010,08,12,11,21,20.00
2010,08,12,11,22,20.00
2010,08,12,11,23,20.00
2010,08,12,11,24,20.00
2010,08,12,11,25,19.90
2010,08,12,11,26,19.80
2010,08,12,11,27,19.80
2010,08,12,11,28,19.80
2010,08,12,11,29,19.70
2010,08,12,11,30,19.70
2010,08,12,11,31,19.70
2010,08,12,11,32,19.70
2010,08,12,11,33,19.70
2010,08,12,11,34,19.70
2010,08,12,11,35,19.70
2010,08,12,11,36,19.70
2010,08,12,11,37,19.60
2010,08,12,11,38,19.60
2010,08,12,11,39,19.60
2010,08,12,11,40,19.50
2010,08,12,11,41,19.50
2010,08,12,11,42,19.40
2010,08,12,11,43,19.40
2010,08,12,11,44,19.50
2010,08,12,11,45,19.50
2010,08,12,11,46,19.60
2010,08,12,11,47,19.60
2010,08,12,11,48,19.70
2010,08,12,11,49,19.70
2010,08,12,11,50,19.80
2010,08,12,11,51,19.80
2010,08,12,11,52,19.70
2010,08,12,11,53,19.70
2010,08,12,11,54,19.70
2010,08,12,11,55,19.70
2010,08,12,11,56,19.70
2010,08,12,11,57,19.70
2010,08,12,11,58,19.70
2010,08,12,11,59,19.70
2010,08,12,12,00,19.70
2010,08,12,12,01,19.80
2010,08,12,12,02,19.90
2010,08,12,12,03,19.90
2010,08,12,12,04,20.00
2010,08,12,12,05,20.10
2010,08,12,12,06,20.20
2010,08,12,12,07,20.20
2010,08,12,12,08,20.30
2010,08,12,12,09,20.30
2010,08,12,12,10,20.40
2010,08,12,12,11,20.40
2010,08,12,12,12,20.40
2010,08,12,12,13,20.50
2010,08,12,12,14,20.50
2010,08,12,12,15,20.40
2010,08,12,12,16,20.30
2010,08,12,12,17,20.20
2010,08,12,12,18,20.20
2010,08,12,12,19,20.20
2010,08,12,12,20,20.20
2010,08,12,12,21,20.30
2010,08,12,12,22,20.30
2010,08,12,12,23,20.30
2010,08,12,12,24,20.30
2010,08,12,12,25,20.30
2010,08,12,12,26,20.20
2010,08,12,12,27,20.20
2010,08,12,12,28,20.20
2010,08,12,12,29,20.30
2010,08,12,12,30,20.30
2010,08,12,12,31,20.40
2010,08,12,12,32,20.40
2010,08,12,12,33,20.40
2010,08,12,12,34,20.40
2010,08,12,12,35,20.40
2010,08,12,12,36,20.40
2010,08,12,12,37,20.40
2010,08,12,12,38,20.40
2010,08,12,12,39,20.50
2010,08,12,12,40,20.40
2010,08,12,12,41,20.40
2010,08,12,12,42,20.40
2010,08,12,12,43,20.40
2010,08,12,12,44,20.40
2010,08,12,12,45,20.50
2010,08,12,12,46,20.50
2010,08,12,12,47,20.50
2010,08,12,12,48,20.50
2010,08,12,12,49,20.50
2010,08,12,12,50,20.50
2010,08,12,12,51,20.60
2010,08,12,12,52,20.60
2010,08,12,12,53,20.60
2010,08,12,12,54,20.70
2010,08,12,12,55,20.80
2010,08,12,12,56,20.80
2010,08,12,12,57,20.90
2010,08,12,12,58,20.90
2010,08,12,12,59,20.90
2010,08,12,13,00,20.90
2010,08,12,13,01,20.90
2010,08,12,13,02,20.80
2010,08,12,13,03,20.70
2010,08,12,13,04,20.60
2010,08,12,13,05,20.50
2010,08,12,13,06,20.40
2010,08,12,13,07,20.40
2010,08,12,13,08,20.40
2010,08,12,13,09,20.30
2010,08,12,13,10,20.30
2010,08,12,13,11,20.30
2010,08,12,13,12,20.30
2010,08,12,13,13,20.30
2010,08,12,13,14,20.40
2010,08,12,13,15,20.50
2010,08,12,13,16,20.60
2010,08,12,13,17,20.50
2010,08,12,13,18,20.50
2010,08,12,13,19,20.50
2010,08,12,13,20,20.40
2010,08,12,13,21,20.40
2010,08,12,13,22,20.40
2010,08,12,13,23,20.30
2010,08,12,13,24,20.30
2010,08,12,13,25,20.30
2010,08,12,13,26,20.40
2010,08,12,13,27,20.50
2010,08,12,13,28,20.50
2010,08,12,13,29,20.50
2010,08,12,13,30,20.60
2010,08,12,13,31,20.60
2010,08,12,13,32,20.60
2010,08,12,13,33,20.60
2010,08,12,13,34,20.60
2010,08,12,13,35,20.60
2010,08,12,13,36,20.60
2010,08,12,13,37,20.60
2010,08,12,13,38,20.60
2010,08,12,13,39,20.70
2010,08,12,13,40,20.80
2010,08,12,13,41,20.80
2010,08,12,13,42,20.80
2010,08,12,13,43,20.80
2010,08,12,13,44,20.70
2010,08,12,13,45,20.70
2010,08,12,13,46,20.70
2010,08,12,13,47,20.70
2010,08,12,13,48,20.60
2010,08,12,13,49,20.60
2010,08,12,13,50,20.70
2010,08,12,13,51,20.70
2010,08,12,13,52,20.70
2010,08,12,13,53,20.80
2010,08,12,13,54,20.80
2010,08,12,13,55,20.80
2010,08,12,13,56,20.80
2010,08,12,13,57,20.90
2010,08,12,13,58,21.10
2010,08,12,13,59,21.10
2010,08,12,14,00,21.20
2010,08,12,14,01,21.20
2010,08,12,14,02,21.20
2010,08,12,14,03,21.20
2010,08,12,14,04,21.20
2010,08,12,14,05,21.20
2010,08,12,14,06,21.10
2010,08,12,14,07,21.10
2010,08,12,14,08,21.10
2010,08,12,14,09,21.10
2010,08,12,14,10,21.10
2010,08,12,14,11,21.10
2010,08,12,14,12,21.10
2010,08,12,14,13,21.20
2010,08,12,14,14,21.20
2010,08,12,14,15,21.30
2010,08,12,14,16,21.40
2010,08,12,14,17,21.50
2010,08,12,14,18,21.50
2010,08,12,14,19,21.60
2010,08,12,14,20,21.60
2010,08,12,14,21,21.70
2010,08,12,14,22,21.80
2010,08,12,14,23,21.80
2010,08,12,14,24,21.90
2010,08,12,14,25,22.00
2010,08,12,14,26,22.10
2010,08,12,14,27,22.10
2010,08,12,14,28,22.10
2010,08,12,14,29,22.10
2010,08,12,14,30,22.10
2010,08,12,14,31,22.10
2010,08,12,14,32,22.10
2010,08,12,14,33,22.20
2010,08,12,14,34,22.20
2010,08,12,14,35,22.20
2010,08,12,14,36,22.20
2010,08,12,14,37,22.20
2010,08,12,14,38,22.20
2010,08,12,14,39,22.20
2010,08,12,14,40,22.00
2010,08,12,14,41,22.00
2010,08,12,14,42,22.00
2010,08,12,14,43,22.00
2010,08,12,14,44,22.10
2010,08,12,14,45,22.20
2010,08,12,14,46,22.30
2010,08,12,14,47,22.40
2010,08,12,14,48,22.50
2010,08,12,14,49,22.60
2010,08,12,14,50,22.50
2010,08,12,14,51,22.40
2010,08,12,14,52,22.30
2010,08,12,14,53,22.30
2010,08,12,14,54,22.10
2010,08,12,14,55,22.10
2010,08,12,14,56,22.10
2010,08,12,14,57,22.10
2010,08,12,14,58,22.10
2010,08,12,14,59,22.10
2010,08,12,15,00,22.10
2010,08,12,15,01,22.20
2010,08,12,15,02,22.20
2010,08,12,15,03,22.30
2010,08,12,15,04,22.40
2010,08,12,15,05,22.50
2010,08,12,15,06,22.60
2010,08,12,15,07,22.60
2010,08,12,15,08,22.70
2010,08,12,15,09,22.70
2010,08,12,15,10,22.70
2010,08,12,15,11,22.70
2010,08,12,15,12,22.60
2010,08,12,15,13,22.60
2010,08,12,15,14,22.60
2010,08,12,15,15,22.60
2010,08,12,15,16,22.70
2010,08,12,15,17,22.70
2010,08,12,15,18,22.70
2010,08,12,15,19,22.70
2010,08,12,15,20,22.60
2010,08,12,15,21,22.60
2010,08,12,15,22,22.60
2010,08,12,15,23,22.50
2010,08,12,15,24,22.50
2010,08,12,15,25,22.50
2010,08,12,15,26,22.50
2010,08,12,15,27,22.50
2010,08,12,15,28,22.40
2010,08,12,15,29,22.40
2010,08,12,15,30,22.40
2010,08,12,15,31,22.40
2010,08,12,15,32,22.40
2010,08,12,15,33,22.50
2010,08,12,15,34,22.60
2010,08,12,15,35,22.60
2010,08,12,15,36,22.60
2010,08,12,15,37,22.60
2010,08,12,15,38,22.60
2010,08,12,15,39,22.60
2010,08,12,15,40,22.60
2010,08,12,15,41,22.70
2010,08,12,15,42,22.60
2010,08,12,15,43,22.60
2010,08,12,15,44,22.60
2010,08,12,15,45,22.70
2010,08,12,15,46,22.70
2010,08,12,15,47,22.70
2010,08,12,15,48,22.70
2010,08,12,15,49,22.70
2010,08,12,15,50,22.70
2010,08,12,15,51,22.70
2010,08,12,15,52,22.70
2010,08,12,15,53,22.80
2010,08,12,15,54,22.70
2010,08,12,15,55,22.70
2010,08,12,15,56,22.70
2010,08,12,15,57,22.70
2010,08,12,15,58,22.70
2010,08,12,15,59,22.70
2010,08,12,16,00,22.70
2010,08,12,16,01,22.70
2010,08,12,16,02,22.80
2010,08,12,16,03,22.80
2010,08,12,16,04,22.90
2010,08,12,16,05,23.00
2010,08,12,16,06,23.00
2010,08,12,16,07,23.00
2010,08,12,16,08,23.10
2010,08,12,16,09,23.10
2010,08,12,16,10,23.10
2010,08,12,16,11,23.20
2010,08,12,16,12,23.20
2010,08,12,16,13,23.30
2010,08,12,16,14,23.30
2010,08,12,16,15,23.30
2010,08,12,16,16,23.40
2010,08,12,16,17,23.40
2010,08,12,16,18,23.40
2010,08,12,16,19,23.50
2010,08,12,16,20,23.50
2010,08,12,16,21,23.40
2010,08,12,16,22,23.30
2010,08,12,16,23,23.20
2010,08,12,16,24,23.10
2010,08,12,16,25,23.10
2010,08,12,16,26,23.00
2010,08,12,16,27,23.00
2010,08,12,16,28,23.00
2010,08,12,16,29,23.00
2010,08,12,16,30,23.00
2010,08,12,16,31,22.90
2010,08,12,16,32,22.90
2010,08,12,16,33,22.80
2010,08,12,16,34,22.70
2010,08,12,16,35,22.70
2010,08,12,16,36,22.70
2010,08,12,16,37,22.80
2010,08,12,16,38,22.80
2010,08,12,16,39,22.80
2010,08,12,16,40,22.80
2010,08,12,16,41,22.80
2010,08,12,16,42,22.90
2010,08,12,16,43,23.00
2010,08,12,16,44,23.00
2010,08,12,16,45,23.10
2010,08,12,16,46,23.10
2010,08,12,16,47,23.00
2010,08,12,16,48,23.00
2010,08,12,16,49,23.00
2010,08,12,16,50,22.90
2010,08,12,16,51,23.00
2010,08,12,16,52,23.00
2010,08,12,16,53,23.10
2010,08,12,16,54,23.10
2010,08,12,16,55,23.10
2010,08,12,16,56,23.10
2010,08,12,16,57,23.20
2010,08,12,16,58,23.20
2010,08,12,16,59,23.20
2010,08,12,17,00,23.20
2010,08,12,17,01,23.20
2010,08,12,17,02,23.20
2010,08,12,17,03,23.20
2010,08,12,17,04,23.20
2010,08,12,17,05,23.20
2010,08,12,17,06,23.20
2010,08,12,17,07,23.30
2010,08,12,17,08,23.30
2010,08,12,17,09,23.30
2010,08,12,17,10,23.30
2010,08,12,17,11,23.40
2010,08,12,17,12,23.50
2010,08,12,17,13,23.50
2010,08,12,17,14,23.60
2010,08,12,17,15,23.60
2010,08,12,17,16,23.60
2010,08,12,17,17,23.50
2010,08,12,17,18,23.50
2010,08,12,17,19,23.50